Monterey, CA

8:42 AM PDT on May 25, 2017 (GMT -0700)
Monterey Peninsula

Weather History for KMRY - October, 2010

Change the Weather History Date:

Saturday, October 16, 2010

  Actual Average Record
Temperature  
Mean Temperature 59 °F 59 °F  
Max Temperature 64 °F 67 °F 82 °F (2008)
Min Temperature 54 °F 50 °F 44 °F (1998)
Degree Days  
Heating Degree Days 6    
Month to date heating degree days 83  
Since 1 July heating degree days 564  
Cooling Degree Days 0    
Month to date cooling degree days 4  
Year to date cooling degree days 30  
Growing Degree Days 8 (Base 50)    
Moisture  
Dew Point 50 °F    
Average Humidity 79    
Maximum Humidity 93    
Minimum Humidity 65    
Precipitation  
Precipitation 0.00 in - 1.13 in (2016)
Month to date precipitation T  
Year to date precipitation 16.44  
Since 1 July precipitation 0.11  
Sea Level Pressure  
Sea Level Pressure 30.09 in    
Wind  
Wind Speed 5 mph (SW)    
Max Wind Speed 14 mph    
Max Gust Speed 17 mph    
Visibility 10 miles    
Events      
T = Trace of Precipitation, MM = Missing Value Source: NWS Daily Summary

Daily Weather History Graph

Daily Weather History Graph

Search for Another Location

Airport or City:

Trip Planner

Search our weather history database for the weather conditions in past years. The results will help you decide how hot, cold, wet, or windy it might be!

Date:

Astronomy

Oct. 16, 2010 Rise Set
Actual Time 7:15 AM PDT 6:29 PM PDT
Civil Twilight 6:49 AM PDT 6:55 PM PDT
Nautical Twilight 6:19 AM PDT 7:25 PM PDT
Astronomical Twilight 5:49 AM PDT 7:55 PM PDT
Moon 3:15 PM PDT (10/16) 1:24 AM PDT (10/16)
Length of Visible Light 12h 06m
Length of Day
11h 13m
Waxing Gibbous, 68% of the Moon is Illuminated
Oct 16
Waxing Gibbous
Oct 22
Full
Oct 30
Last Quarter
Nov 5
New
Nov 13
First Quarter

Hourly Weather History & Observations

Time (PDT) Temp. Dew Point Humidity Pressure Visibility Wind Dir Wind Speed Gust Speed Precip Events Conditions
12:54 AM 55.0 °F 52.0 °F 89% 30.09 in 6.0 mi Calm Calm - N/A   Overcast
1:54 AM 55.0 °F 52.0 °F 89% 30.10 in 6.0 mi Calm Calm - N/A   Overcast
2:54 AM 55.0 °F 52.0 °F 89% 30.08 in 7.0 mi Calm Calm - N/A   Overcast
3:54 AM 54.0 °F 51.1 °F 90% 30.08 in 7.0 mi Calm Calm - N/A   Overcast
4:54 AM 54.0 °F 51.1 °F 90% 30.10 in 10.0 mi SSW 5.8 mph - N/A   Overcast
5:54 AM 55.0 °F 51.1 °F 86% 30.11 in 10.0 mi West 3.5 mph - N/A   Overcast
6:54 AM 55.9 °F 51.1 °F 84% 30.11 in 10.0 mi South 4.6 mph - N/A   Overcast
7:26 AM 55.4 °F 51.8 °F 88% 30.08 in 10.0 mi SW 4.6 mph - N/A   Overcast
7:54 AM 55.0 °F 51.1 °F 86% 30.12 in 10.0 mi Calm Calm - N/A   Overcast
8:54 AM 55.9 °F 51.1 °F 84% 30.13 in 10.0 mi Calm Calm - N/A   Mostly Cloudy
9:07 AM 55.4 °F 51.8 °F 88% 30.09 in 10.0 mi Calm Calm - N/A   Scattered Clouds
9:54 AM 57.0 °F 51.1 °F 81% 30.13 in 10.0 mi NW 3.5 mph - N/A   Scattered Clouds
10:54 AM 60.1 °F 51.1 °F 72% 30.13 in 10.0 mi WNW 4.6 mph - N/A   Clear
11:54 AM 59.0 °F 51.1 °F 75% 30.12 in 10.0 mi WNW 5.8 mph - N/A   Clear
12:54 PM 62.1 °F 51.1 °F 67% 30.11 in 10.0 mi WSW 8.1 mph - N/A   Clear
1:54 PM 62.1 °F 50.0 °F 65% 30.09 in 10.0 mi West 9.2 mph - N/A   Clear
2:54 PM 59.0 °F 50.0 °F 72% 30.09 in 10.0 mi WNW 10.4 mph - N/A   Scattered Clouds
3:54 PM 60.1 °F 50.0 °F 69% 30.09 in 10.0 mi West 6.9 mph - N/A   Mostly Cloudy
4:42 PM 57.2 °F 48.2 °F 72% 30.05 in 10.0 mi SW 9.2 mph - N/A   Mostly Cloudy
4:54 PM 57.9 °F 48.9 °F 72% 30.09 in 10.0 mi SSW 12.7 mph - N/A   Mostly Cloudy
5:54 PM 55.9 °F 48.9 °F 77% 30.09 in 10.0 mi SSW 4.6 mph - N/A   Overcast
6:45 PM 55.4 °F 48.2 °F 77% 30.05 in 10.0 mi South 4.6 mph - N/A   Overcast
6:54 PM 55.9 °F 48.9 °F 77% 30.09 in 10.0 mi SW 5.8 mph - N/A   Overcast
7:54 PM 55.0 °F 48.9 °F 80% 30.09 in 10.0 mi SSW 5.8 mph - N/A   Overcast
8:54 PM 54.0 °F 48.0 °F 80% 30.09 in 10.0 mi SSW 5.8 mph - N/A   Mostly Cloudy
9:06 PM 53.6 °F 48.2 °F 82% 30.05 in 10.0 mi SW 4.6 mph - N/A   Partly Cloudy
9:41 PM 53.6 °F 48.2 °F 82% 30.06 in 10.0 mi South 4.6 mph - N/A   Mostly Cloudy
9:54 PM 54.0 °F 48.0 °F 80% 30.09 in 10.0 mi South 4.6 mph - N/A   Overcast
10:14 PM 53.6 °F 48.2 °F 82% 30.06 in 10.0 mi SSW 4.6 mph - N/A   Scattered Clouds
10:54 PM 54.0 °F 48.0 °F 80% 30.09 in 10.0 mi Calm Calm - N/A   Clear
11:54 PM 55.0 °F 50.0 °F 83% 30.10 in 10.0 mi SSW 3.5 mph - N/A   Clear